This is the latest recevied weather packets stored in our database for station/object K6CED. If no packets are shown the sender has not sent any weather packets the latest 10 day(s).
| Time | Temp. | Humidity | Pressure | Rain* | Wind** | Luminosity | Snow |
|---|---|---|---|---|---|---|---|
| 1777411573 | 22.78° C | 46% | 1018.1 hPa | 0 mm | - | 801 W/m² | - |
| 1777411269 | 22.22° C | 46% | 1018.1 hPa | 0 mm | - | 812 W/m² | - |
| 1777410962 | 22.78° C | 44% | 1018.2 hPa | 0 mm | - | 821 W/m² | - |
| 1777410663 | 23.33° C | 43% | 1018.4 hPa | 0 mm | - | 840 W/m² | - |
| 1777410357 | 22.78° C | 44% | 1018.4 hPa | 0 mm | - | 858 W/m² | - |
| 1777410051 | 22.78° C | 44% | 1018.2 hPa | 0 mm | - | 765 W/m² | - |
| 1777409745 | 22.78° C | 42% | 1018.3 hPa | 0 mm | - | 868 W/m² | - |
| 1777409442 | 22.78° C | 42% | 1018.3 hPa | 0 mm | - | 862 W/m² | - |
| 1777409138 | 23.33° C | 41% | 1018.2 hPa | 0 mm | - | 866 W/m² | - |
| 1777408834 | 23.89° C | 40% | 1018 hPa | 0 mm | - | 872 W/m² | - |
| 1777408530 | 22.78° C | 37% | 1018.1 hPa | 0 mm | - | 878 W/m² | - |
| 1777408230 | 23.33° C | 35% | 1018 hPa | 0 mm | - | 885 W/m² | - |
| 1777407926 | 23.89° C | 35% | 1018.1 hPa | 0 mm | - | 885 W/m² | - |
| 1777407623 | 23.33° C | 36% | 1017.8 hPa | 0 mm | - | 885 W/m² | - |
| 1777407318 | 23.89° C | 36% | 1018 hPa | 0 mm | - | 888 W/m² | - |
| 1777407018 | 23.33° C | 36% | 1018.2 hPa | 0 mm | - | 892 W/m² | - |
| 1777406714 | 22.78° C | 38% | 1018.2 hPa | 0 mm | - | 899 W/m² | - |
| 1777406409 | 22.78° C | 36% | 1018.3 hPa | 0 mm | - | 902 W/m² | - |
| 1777406108 | 22.78° C | 38% | 1018.4 hPa | 0 mm | - | 899 W/m² | - |
| 1777405804 | 22.22° C | 37% | 1018.5 hPa | 0 mm | - | 903 W/m² | - |
| 1777405501 | 21.67° C | 38% | 1018.7 hPa | 0 mm | - | 904 W/m² | - |
| 1777405199 | 21.67° C | 38% | 1018.7 hPa | 0 mm | - | 902 W/m² | - |
| 1777404896 | 22.22° C | 38% | 1018.4 hPa | 0 mm | - | 902 W/m² | - |
| 1777404593 | 21.67° C | 35% | 1018.4 hPa | 0 mm | - | 903 W/m² | - |
| 1777404289 | 21.67° C | 37% | 1018.7 hPa | 0 mm | - | 902 W/m² | - |
* Rain latest hour (hover to see other rain measurements)
** Current wind speed in m/s (hover to see current wind gust speed)